TimeEDT,TemperatureF,Dew PointF,Humidity,Sea Level PressureIn,VisibilityMPH,Wind Direction,Wind SpeedMPH,Gust SpeedMPH,PrecipitationIn,Events,Conditions,WindDirDegrees,DateUTC
12:51 AM,45.0,43.0,93,30.11,10.0,Calm,Calm,-,N/A,Fog,Shallow Fog,0,2012-10-08 04:51:00
1:35 AM,42.8,42.8,100,30.12,1.5,Calm,Calm,-,N/A,Fog,Patches of Fog,0,2012-10-08 05:35:00
1:42 AM,42.8,41.0,93,30.12,10.0,Calm,Calm,-,N/A,Fog,Patches of Fog,0,2012-10-08 05:42:00
1:51 AM,43.0,42.1,97,30.12,10.0,Calm,Calm,-,N/A,Fog,Patches of Fog,0,2012-10-08 05:51:00
2:51 AM,43.0,41.0,93,30.13,10.0,WNW,3.5,-,N/A,Fog,Shallow Fog,290,2012-10-08 06:51:00
3:51 AM,42.8,39.2,87,30.13,7.0,Calm,Calm,-,N/A,Fog,Shallow Fog,0,2012-10-08 07:51:00
4:51 AM,42.1,41.0,96,30.15,10.0,SE,3.5,-,N/A,Fog,Shallow Fog,130,2012-10-08 08:51:00
5:51 AM,39.9,39.0,97,30.15,10.0,Calm,Calm,-,N/A,Fog,Patches of Fog,0,2012-10-08 09:51:00
6:51 AM,41.0,39.0,93,30.19,10.0,WNW,5.8,-,N/A,,Clear,300,2012-10-08 10:51:00
7:51 AM,44.1,41.0,89,30.22,10.0,NW,3.5,-,N/A,,Clear,320,2012-10-08 11:51:00
8:51 AM,48.0,39.9,74,30.25,10.0,NNW,9.2,-,N/A,,Clear,340,2012-10-08 12:51:00
9:51 AM,51.1,41.0,68,30.26,10.0,Variable,3.5,-,N/A,,Clear,0,2012-10-08 13:51:00
10:51 AM,52.0,41.0,66,30.26,10.0,NW,5.8,-,N/A,,Clear,320,2012-10-08 14:51:00
11:51 AM,54.0,39.9,59,30.25,10.0,NNW,4.6,-,N/A,,Clear,330,2012-10-08 15:51:00
12:51 PM,54.0,39.0,57,30.26,10.0,ESE,4.6,-,N/A,,Clear,120,2012-10-08 16:51:00
1:51 PM,55.0,37.0,51,30.26,10.0,Calm,Calm,-,N/A,,Mostly Cloudy,0,2012-10-08 17:51:00
2:51 PM,55.9,37.0,49,30.24,10.0,Calm,Calm,-,N/A,,Scattered Clouds,0,2012-10-08 18:51:00
3:51 PM,55.0,37.9,53,30.25,10.0,North,3.5,-,N/A,,Mostly Cloudy,360,2012-10-08 19:51:00
4:51 PM,55.0,39.0,55,30.25,10.0,NNW,4.6,-,N/A,,Overcast,340,2012-10-08 20:51:00
5:51 PM,54.0,39.9,59,30.27,10.0,Calm,Calm,-,0.00,Rain,Light Rain,0,2012-10-08 21:51:00
6:51 PM,52.0,43.0,71,30.26,10.0,Calm,Calm,-,0.01,,Drizzle,0,2012-10-08 22:51:00
7:51 PM,51.8,44.6,76,30.25,10.0,NNE,3.5,-,N/A,,Scattered Clouds,20,2012-10-08 23:51:00
8:51 PM,52.0,46.0,80,30.26,10.0,Calm,Calm,-,N/A,,Clear,0,2012-10-09 00:51:00
9:51 PM,51.1,44.1,77,30.25,10.0,NNE,3.5,-,N/A,,Clear,20,2012-10-09 01:51:00
10:51 PM,51.1,45.0,80,30.25,10.0,North,4.6,-,N/A,,Clear,10,2012-10-09 02:51:00
11:51 PM,50.0,46.0,86,30.22,10.0,North,5.8,-,N/A,,Scattered Clouds,10,2012-10-09 03:51:00